This demonstration page uses our WeatherBlox Daily Observations layout. Learn more.

Hourly Observations for October 21, 2015

Temp ( °F °C ) Dew Point ( °F °C ) Humidity (%) Winds ( mph kmh ) Pressure ( in mb ) Visibility ( mi km ) Precip ( " mm )
12:15 am 00:15 Clear 59 15 48 9 68 68 NNE 7 11 29.91 1013 10 16.09344 0 0
12:35 am 00:35 Partly Cloudy 61 16 50 10 68 68 N 7 11 29.88 1012 10 16.09344 0 0
12:55 am 00:55 Mostly Cloudy 63 17 50 10 64 64 W 3 6 29.91 1013 10 16.09344 0 0
1:15 am 01:15 Mostly Cloudy 61 16 50 10 68 68 Calm 29.91 1013 10 16.09344 0 0
1:35 am 01:35 Mostly Cloudy 63 17 50 10 64 64 S 8 13 29.91 1013 10 16.09344 0 0
1:55 am 01:55 Mostly Cloudy 66 19 48 9 52 52 SSW 7 11 29.94 1014 10 16.09344 0 0
2:15 am 02:15 Partly Cloudy 63 17 50 10 64 64 NNW 14 22 29.94 1014 10 16.09344 0 0
2:35 am 02:35 Partly Cloudy 64 18 52 11 64 64 N 9 15 29.94 1014 10 16.09344 0 0
2:55 am 02:55 Partly Cloudy 63 17 52 11 68 68 NNE 9 15 29.97 1015 10 16.09344 0 0
3:15 am 03:15 Partly Cloudy 63 17 52 11 68 68 NNE 12 19 29.97 1015 10 16.09344 0 0
3:35 am 03:35 Partly Cloudy 63 17 50 10 64 64 NNE 10 17 30 1016 10 16.09344 0 0
3:55 am 03:55 Partly Cloudy 61 16 48 9 63 63 NNE 12 19 30.03 1017 10 16.09344 0 0
4:15 am 04:15 Mostly Cloudy 61 16 48 9 63 63 N 8 13 30.06 1018 10 16.09344 0 0
4:35 am 04:35 Mostly Cloudy 59 15 48 9 68 68 N 6 9 30.06 1018 10 16.09344 0 0
4:55 am 04:55 Partly Cloudy 59 15 46 8 63 63 N 12 19 30.06 1018 10 16.09344 0 0
5:15 am 05:15 Partly Cloudy 59 15 46 8 63 63 NNE 15 24 30.06 1018 10 16.09344 0 0
5:35 am 05:35 Partly Cloudy 59 15 46 8 63 63 NNE 14 22 30.06 1018 10 16.09344 0 0
5:55 am 05:55 Partly Cloudy 59 15 46 8 63 63 NNE 15 24 30.06 1018 10 16.09344 0 0
6:15 am 06:15 Partly Cloudy 59 15 46 8 63 63 NNE 17 28 30.06 1018 10 16.09344 0 0
6:35 am 06:35 Partly Cloudy 57 14 46 8 67 67 NNE 16 26 30.06 1018 10 16.09344 0 0
6:55 am 06:55 Partly Cloudy 57 14 46 8 67 67 NNE 17 28 30.06 1018 10 16.09344 0 0
7:15 am 07:15 Clear 57 14 46 8 67 67 NNE 16 26 30.09 1019 10 16.09344 0 0
7:35 am 07:35 Clear 55 13 46 8 72 72 N 17 28 30.12 1020 10 16.09344 0 0
7:55 am 07:55 Sunny 55 13 46 8 72 72 N 16 26 30.12 1020 10 16.09344 0 0
8:15 am 08:15 Sunny 55 13 46 8 72 72 N 17 28 30.12 1020 10 16.09344 0 0
8:35 am 08:35 Partly Cloudy 55 13 46 8 72 72 N 12 19 30.15 1021 10 16.09344 0 0
8:55 am 08:55 Partly Cloudy 55 13 46 8 72 72 N 18 30 30.15 1021 10 16.09344 0 0
9:15 am 09:15 Sunny 55 13 46 8 72 72 N 16 26 30.15 1021 10 16.09344 0 0
9:35 am 09:35 Sunny 55 13 46 8 72 72 N 21 33 30.18 1022 10 16.09344 0 0
9:55 am 09:55 Sunny 57 14 46 8 67 67 N 21 33 30.18 1022 10 16.09344 0 0
10:15 am 10:15 Mostly Cloudy 57 14 46 8 67 67 N 17 28 30.21 1023 10 16.09344 0 0
10:35 am 10:35 Cloudy 59 15 46 8 63 63 N 20 31 30.18 1022 10 16.09344 0 0
10:55 am 10:55 Cloudy 59 15 46 8 63 63 NNE 17 28 30.18 1022 10 16.09344 0 0
11:15 am 11:15 Cloudy 59 15 46 8 63 63 N 17 28 30.18 1022 10 16.09344 0 0
11:35 am 11:35 Cloudy 59 15 46 8 63 63 NNE 15 24 30.18 1022 10 16.09344 0 0
11:55 am 11:55 Cloudy 59 15 46 8 63 63 N 13 20 30.18 1022 10 16.09344 0 0
12:15 pm 12:15 Cloudy 59 15 46 8 63 63 NNE 13 20 30.18 1022 10 16.09344 0 0
12:35 pm 12:35 Cloudy 61 16 46 8 59 59 N 13 20 30.18 1022 10 16.09344 0 0
12:55 pm 12:55 Cloudy 61 16 46 8 59 59 NNE 9 15 30.18 1022 10 16.09344 0 0
1:15 pm 13:15 Cloudy 59 15 46 8 63 63 NNE 12 19 30.18 1022 10 16.09344 0 0
1:35 pm 13:35 Mostly Cloudy 61 16 46 8 59 59 NNE 10 17 30.15 1021 10 16.09344 0 0
1:55 pm 13:55 Mostly Cloudy 61 16 46 8 59 59 NNE 10 17 30.15 1021 10 16.09344 0 0
2:15 pm 14:15 Mostly Cloudy 61 16 46 8 59 59 NNE 13 20 30.15 1021 10 16.09344 0 0
2:35 pm 14:35 Mostly Cloudy 61 16 46 8 59 59 NNE 12 19 30.15 1021 10 16.09344 0 0
2:55 pm 14:55 Mostly Cloudy with Rain 59 15 46 8 63 63 NNE 6 9 30.15 1021 10 16.09344 0 0
3:15 pm 15:15 Mostly Cloudy with Light Drizzle 59 15 46 8 63 63 N 7 11 30.15 1021 10 16.09344 0 0
3:35 pm 15:35 Mostly Cloudy with Light Rain 59 15 48 9 68 68 N 8 13 30.15 1021 10 16.09344 0 0
3:55 pm 15:55 Cloudy with Rain 57 14 48 9 72 72 NNE 7 11 30.18 1022 10 16.09344 0 0
4:15 pm 16:15 Cloudy with Drizzle 57 14 48 9 72 72 N 6 9 30.18 1022 10 16.09344 0 0
4:35 pm 16:35 Mostly Cloudy with Light Rain 57 14 48 9 72 72 Calm 30.21 1023 10 16.09344 0 0
4:55 pm 16:55 Mostly Cloudy with Light Drizzle 57 14 50 10 77 77 N 3 6 30.18 1022 10 16.09344 0 0
5:15 pm 17:15 Cloudy with Light Drizzle 57 14 50 10 77 77 NE 5 7 30.18 1022 10 16.09344 0 0
5:35 pm 17:35 Cloudy with Light Rain 57 14 50 10 77 77 NNE 3 6 30.18 1022 10 16.09344 0.01 0.254
5:55 pm 17:55 Mostly Cloudy with Light Drizzle 57 14 50 10 77 77 N 5 7 30.21 1023 10 16.09344 0.01 0.254
6:15 pm 18:15 Cloudy 57 14 50 10 77 77 N 3 6 30.21 1023 10 16.09344 0 0
6:35 pm 18:35 Cloudy 57 14 50 10 77 77 Calm 30.21 1023 10 16.09344 0 0
6:55 pm 18:55 Cloudy 57 14 50 10 77 77 Calm 30.21 1023 10 16.09344 0 0
7:15 pm 19:15 Cloudy 55 13 50 10 82 82 NNE 5 7 30.21 1023 10 16.09344 0 0
7:35 pm 19:35 Cloudy 55 13 50 10 82 82 NNE 6 9 30.18 1022 10 16.09344 0 0
7:55 pm 19:55 Cloudy 55 13 48 9 77 77 NNE 5 7 30.21 1023 10 16.09344 0 0
8:15 pm 20:15 Cloudy 54 12 50 10 88 88 N 3 6 30.21 1023 10 16.09344 0 0
8:35 pm 20:35 Cloudy 54 12 48 9 82 82 N 3 6 30.21 1023 10 16.09344 0 0
8:55 pm 20:55 Cloudy 54 12 48 9 82 82 NNE 5 7 30.21 1023 10 16.09344 0 0
9:15 pm 21:15 Cloudy 54 12 48 9 82 82 NNE 6 9 30.18 1022 10 16.09344 0 0
9:35 pm 21:35 Cloudy 54 12 46 8 77 77 NNE 7 11 30.18 1022 10 16.09344 0 0
9:55 pm 21:55 Cloudy 54 12 45 7 72 72 NNE 6 9 30.18 1022 10 16.09344 0 0
10:15 pm 22:15 Cloudy 52 11 45 7 77 77 Calm 30.24 1024 10 16.09344 0 0
10:35 pm 22:35 Cloudy 54 12 45 7 72 72 NNE 5 7 30.21 1023 10 16.09344 0 0
10:55 pm 22:55 Cloudy 54 12 45 7 72 72 NNE 5 7 30.21 1023 10 16.09344 0 0
11:15 pm 23:15 Cloudy 52 11 46 8 82 82 Calm 30.24 1024 10 16.09344 0 0
11:35 pm 23:35 Cloudy 52 11 46 8 82 82 Calm 30.24 1024 10 16.09344 0 0
11:55 pm 23:55 Cloudy 54 12 46 8 77 77 Calm 30.21 1023 10 16.09344 0 0

Powered by AerisWeather